Вернуться в каталог

KUIPER-00133

АктивенСвязьLEO
NORAD 65764·PAYLOAD·🇺🇸 United States

Запущен Sep 25, 2025 с Cape Canaveral Space Force Station

Loading…

Ближайшие Пролёты (ближайшие 24 часа)

TLE

СвежийSource: CelesTrak SupGP

Эпоха: Sep 14, 2026, 23:15 UTC

1 65764C 25217C   26257.96893519  .00002483  00000+0  32509-3 0  2572
2 65764  51.9028 296.1942 0000537  83.0355 151.9857 14.79920304    13

Отслеживайте KUIPER-00133 в реальном времени с AllMySat

Download on the App Store